Location: Newark
(45.2303°N, 123.8633°W)
Time: 00:42:13
(UTC+00:00)

ISS - Visible Passes

Search period start: 22 September 2020 00:00
Search period end: 02 October 2020 00:00
Orbit: 419 x 420 km, 51.6° (Epoch: 22 September)

Date Brightness Start Highest point End Pass type
(mag) Time Alt. Az. Time Alt. Az. Time Alt. Az.
22 Sep -2.4 04:12:41 10° W 04:15:48 33° NNW 04:16:17 31° N visible
23 Sep -2.6 03:25:04 10° W 03:28:17 41° NNW 03:30:47 15° NE visible
23 Sep -0.7 05:02:44 10° WNW 05:03:45 16° NW 05:03:45 16° NW visible
24 Sep -3.1 02:37:28 10° WSW 02:40:47 54° NNW 02:44:07 10° NE visible
24 Sep -2.0 04:15:09 10° WNW 04:18:04 27° N 04:18:10 26° N visible
25 Sep -2.1 03:27:30 10° WNW 03:30:29 29° N 03:32:32 16° NE visible
25 Sep -0.5 05:04:52 10° NW 05:05:30 14° NW 05:05:30 14° NW visible
26 Sep -2.3 02:39:49 10° W 02:42:55 33° NNW 02:46:01 10° NE visible
26 Sep -1.9 04:17:22 10° NW 04:19:50 26° N 04:19:50 26° N visible
27 Sep -2.1 03:29:49 10° WNW 03:32:44 26° N 03:34:08 20° NE visible
27 Sep -0.3 05:06:47 10° NW 05:07:06 12° NW 05:07:06 12° NW visible
28 Sep -2.1 02:42:11 10° WNW 02:45:07 27° N 02:48:02 10° ENE visible
28 Sep -1.9 04:19:20 10° NW 04:21:24 28° NNW 04:21:24 28° NNW visible
29 Sep -2.5 03:31:51 10° NW 03:34:55 31° NNE 03:35:42 27° NE visible
29 Sep -0.1 05:08:37 10° WNW 05:08:39 10° WNW 05:08:39 10° WNW visible
30 Sep -2.3 02:44:20 10° NW 02:47:17 27° N 02:50:00 11° ENE visible
30 Sep -1.8 04:21:09 10° WNW 04:22:57 29° NW 04:22:57 29° NW visible
01 Oct -3.3 03:33:40 10° NW 03:36:58 48° NNE 03:37:17 46° NE visible
